Regional Weather Roundup
Issued by NWS

Home | Current Version | Previous Version | Text Only | Print | Product List | Glossary On
Versions: 1 2 3 4 5 6 7 8 9 10 11 12 13 14 15 16 17 18 19 20 21 22 23 24 25 26 27 28 29 30 31 32 33 34 35 36 37 38 39 40 41 42 43 44 45 46 47 48 49 50
000
ASUS45 KPSR 181310
RWRAZ

ARIZONA HOURLY REGIONAL WEATHER ROUNDUP
NATIONAL WEATHER SERVICE PHOENIX AZ
600 AM MST FRI AUG 18 2017

NOTE: FAIR INDICATES FEW OR NO CLOUDS BELOW 12,000 FEET WITH NO
SIGNIFICANT WEATHER AND/OR OBSTRUCTIONS TO VISIBILITY.

AZZ001>003-036-181400-
NORTHWEST ARIZONA

CITY           SKY/WX    TMP DP  RH WIND       PRES   REMARKS
BULLHEAD CITY  CLEAR     81  37  21 S3        29.89R
KINGMAN        CLEAR     63  35  35 SE3       30.09R
$$

AZZ004>008-015-016-018-181400-
NORTH CENTRAL ARIZONA

CITY           SKY/WX    TMP DP  RH WIND       PRES   REMARKS
GRAND CANYON   CLEAR     42  34  73 CALM      30.33R
WILLIAMS       CLEAR     46  37  71 S7        30.33R
PRESCOTT       CLEAR     54  39  57 S7        30.22R
FLAGSTAFF      CLEAR     48  37  65 CALM      30.34S
PAYSON           N/A     59  27  29 CALM      30.23R
PAGE           CLEAR     73  37  27 CALM      30.13R
$$

AZZ009>014-017-181400-
NORTHEAST ARIZONA

CITY           SKY/WX    TMP DP  RH WIND       PRES   REMARKS
WINSLOW        CLEAR     56  34  43 SE6       30.21R
SAINT JOHNS    CLEAR     56  41  57 S6        30.27R
WINDOW ROCK    PTCLDY    45  30  55 SW3       30.33R
SHOW LOW       CLEAR     54  36  50 S6        30.32S
$$

AZZ540-542>544-546-548-181400-
GREATER PHOENIX AREA

CITY           SKY/WX    TMP DP  RH WIND       PRES   REMARKS
PHOENIX        PTCLDY    80  39  23 SE3       29.91R
BUCKEYE        CLEAR     70  39  32 N6        29.92R
GLENDALE       PTCLDY    75  50  41 NE5       29.94
LUKE AFB       CLEAR     73  49  42 N5        29.91R
DEER VALLEY    CLEAR     74  31  20 CALM      29.94R
SCOTTSDALE     CLEAR     76  41  28 NE5       29.95R
MESA-FALCON    CLEAR     77  36  22 NE8       29.95
MESA-GATEWAY   PTCLDY    70  41  35 CALM      29.95R
CHANDLER       CLEAR     73  46  38 CALM      29.84
$$

AZZ539-553-181400-
SOUTHWEST MARICOPA COUNTY AND PINAL COUNTY

CITY           SKY/WX    TMP DP  RH WIND       PRES   REMARKS
CASA GRANDE    CLEAR     71  53  52 NE5       29.96
GILA BEND      FAIR      78  47  33 SE7       29.89R
$$

AZZ503-504-507>509-181400-
SOUTHEAST ARIZONA

CITY           SKY/WX    TMP DP  RH WIND       PRES   REMARKS
TUCSON         NOT AVBL
DAVIS-MONTHAN  CLEAR     66  45  47 SE7       30.04R
RYAN FIELD     CLEAR     64  43  45 CALM      30.05
NOGALES        CLEAR     57  47  69 CALM      30.13R
SIERRA VISTA   CLEAR     69  34  26 W10       30.18R
DOUGLAS        CLEAR     59  50  72 CALM      30.15R
SAFFORD        CLEAR     60  44  55 CALM      30.06R
$$

AZZ532-181400-
SOUTHWEST ARIZONA

CITY           SKY/WX    TMP DP  RH WIND       PRES   REMARKS
YUMA           CLEAR     80  61  52 NE5       29.85R
$$

CAZ041-043-047-048-061-525>527-560>570-181400-
SOUTHERN CALIFORNIA

CITY           SKY/WX    TMP DP  RH WIND       PRES   REMARKS
DOWNTOWN L.A.  CLEAR     65  62  90 CALM      29.98R
L.A. AIRPORT   MOCLDY    66  63  90 S6        29.98R
SAN DIEGO      MOCLDY    69  62  78 N5        30.00R
BURBANK        CLEAR     63  58  83 CALM      29.98R
ONTARIO        CLEAR     64  60  87 W3        29.99R
RIVERSIDE      CLEAR     64  61  90 CALM      29.99R
PALM SPRINGS   CLEAR     78  55  44 CALM      29.88R
EL CENTRO NAS  CLEAR     77  53  43 S5        29.85R
IMPERIAL       CLEAR     76  57  51 CALM      29.83R
BLYTHE         CLEAR     78  48  34 NW6       29.86R
NEEDLES        CLEAR     80  38  22 N5        29.90R
$$

NVZ020-UTZ003-181400-
SOUTHERN NEVADA-UTAH

CITY           SKY/WX    TMP DP  RH WIND       PRES   REMARKS
LAS VEGAS      PTCLDY    81  43  26 CALM      29.98R
SALT LAKE CITY CLEAR     66  46  48 SE9       30.13R
$$

NMZ009-TXZ055-181400-
NEW MEXICO-WEST TEXAS

CITY           SKY/WX    TMP DP  RH WIND       PRES   REMARKS
ALBUQUERQUE    CLOUDY    66  41  40 SE3       30.22R
EL PASO        MOCLDY    73  61  65 CALM      30.11R
$$


........................KEY........................
SKY/WX - SKY CONDITION/WEATHER
TMP    - TEMPERATURE IN FAHRENHEIT
DP     - DEW POINT IN FAHRENHEIT
RH     - RELATIVE HUMIDITY IN PERCENT
WIND   - DIRECTION AND SPEED IN MILES PER HOUR (MPH)
VRB    - VARIABLE WIND DIRECTION
PRES   - MEAN SEA LEVEL PRESSURE IN INCHES OF MERCURY
         F - FALLING PRESSURE   R - RISING PRESSURE
         S - STEADY PRESSURE
VSB    - VISIBILITY IN MILES
HX     - HEAT INDEX IN FAHRENHEIT
WCI    - WIND CHILL INDEX IN FAHRENHEIT
TC     - TEMPERATURE IN CELSIUS WHICH IS ALSO KNOWN AS
         TEMPERATURE IN CENTIGRADE
AFB    - AIR FORCE BASE
         LUKE AFB IS LUKE AIR FORCE BASE
         DAVIS-MONTHAN IS DAVIS-MONTHAN AIR FORCE BASE
NAS    - NAVAL AIR STATION
         EL CENTRO NAS IS EL CENTRO NAVAL AIR STATION
N/A    - NOT AVAILABLE




USA.gov is the U.S. government's official web portal to all federal, state and local government web resources and services.